Starlink 4168

operational
NORAD ID: 52845 Int'l Des: 2022-062 Owner: SPXS Country: US Constellation: starlink
LEOCIRCULAR

关于 Starlink 4168

正在加载描述...

实时位置

正在加载3D地球...

即将过境

高度历史

Altitude vs Time

uPlot chart will show altitude changes over time

两行轨道根数

1 52845U 22062R 26033.41841081 .00000161 00000-0 28182-4 0 9990
2 52845 53.2148 192.5241 0001388 72.4574 287.6569 15.08842379200464
Epoch: Feb 2, 2026 • Age: 27 hours

当前状态

高度 540.4 km
速度 7.59 km/s
星下点 -0.18°S, 142.39°W
发射日期 Jun 17, 2022
运行时间 3.6 years
类型 internet

技术详情

分类 Payload
质量 297.00 kg
干质量 275.00 kg
总质量 297.00 kg
长度 0.20 m
直径 2.80 m
跨度 9.00 m
形状 Box + pan
制造商 SPXS
平台类型 Starlink
阶段状态 In Orbit
所有者/国家 SPXS/US

大型星座

Loading constellations...